Location: *
(42.0175°N, 9.4056°E)
Time: 04:28:31
(UTC+00:00)

Spot 2 Rocket - Pass Details

Date: 25 August 2019
Orbit: 756 x 773 km, 98.6° (Epoch: 18 September)

Event Time Altitude Azimuth Distance (km) Brightness Sun altitude
Exits shadow 20:13:43 41° 168° (SSE) 1,102 3.9 -21.6°
Maximum altitude 20:15:34 87° 256° (WSW) 774 3.4 -21.9°
Drops below altitude 10° 20:20:40 10° 346° (NNW) 2,310 6.7 -22.6°
Sets 20:22:58 0° 347° (NNW) 3,238 7.6 -22.9°
